Miscellaneous Local Product
Issued by NWS Hastings, NE

Home | Current Version | Previous Version | Text Only | Print | Product List | Glossary On
Versions: 1 2 3 4 5 6 7 8 9 10 11 12 13 14 15 16 17 18 19 20 21 22 23 24 25 26 27 28 29 30 31 32 33 34 35 36 37 38 39 40 41 42 43 44 45 46 47 48 49 50
000
AXUS43 KGID 200602
MISGRI

GID CWA HOURLY WEATHER ROUNDUP
NATIONAL WEATHER SERVICE HASTINGS NE
1200 AM CST MON NOV 20 2017

NOTE: "FAIR" INDICATES FEW OR NO CLOUDS BELOW 12,000 FEET WITH NO
SIGNIFICANT WEATHER AND/OR OBSTRUCTIONS TO VISIBILITY.

...SOUTH CENTRAL NEBRASKA...

CITY           SKY/WX    TMP DP  RH WIND       PRES   REMARKS
GRAND ISLAND   CLEAR     40  27  59 SW10      29.85F WCI  33
KEARNEY        CLEAR     35  25  66 SW10      29.86F WCI  27
HASTINGS       CLEAR     39  23  52 S9        29.86F WCI  33
ORD            CLOUDY    36  25  64 SW10      29.80F WCI  28
YORK           CLEAR     36  25  64 S5        29.86F WCI  32
AURORA         CLEAR     36  24  61 SW12      29.85F WCI  28
LEXINGTON      CLOUDY    43  25  48 W6        29.84F
HOLDREGE       CLEAR     37  26  64 SW10      29.86F WCI  30
HEBRON         CLEAR     42  24  48 SW12      29.90F

...NEBRASKA PANHANDLE...

CITY           SKY/WX    TMP DP  RH WIND       PRES   REMARKS
CHADRON        CLOUDY    25  15  66 W8        29.78F WCI  16
ALLIANCE       CLOUDY    27  12  53 W3        29.81F
SCOTTSBLUFF    CLOUDY    43  10  26 W17       29.85F
SIDNEY         CLOUDY    36   9  32 W13       29.88F WCI  27

...WESTERN AND NORTH CENTRAL NEBRASKA...

CITY           SKY/WX    TMP DP  RH WIND       PRES   REMARKS
VALENTINE      CLOUDY    36  20  52 SW10      29.74F WCI  28
AINSWORTH      CLOUDY    37  21  52 SW13      29.75F WCI  29
ONEILL         PTCLDY    34  27  75 S6        29.77F WCI  29
BROKEN BOW     CLEAR     36  23  59 W3        29.81F
IMPERIAL       CLOUDY    37  19  48 W10       29.86F WCI  30
NORTH PLATTE   CLOUDY    28  22  78 NW7       29.85F WCI  21
MCCOOK         CLEAR     34  22  61 NW7       29.87F WCI  28

...EASTERN NEBRASKA...

CITY           SKY/WX    TMP DP  RH WIND       PRES   REMARKS
NORFOLK        CLOUDY    35  25  66 SW7       29.81F WCI  29
SO SIOUX CITY  CLOUDY    30  25  81 E7        29.82F WCI  23
TEKAMAH        CLOUDY    31  23  72 S8        29.86F WCI  23
COLUMBUS       CLOUDY    28  23  81 CALM      29.86F
ALBION         CLOUDY    36  25  65 S5        29.82F WCI  32
OMAHA EPPLEY   CLOUDY    35  25  66 SE9       29.90F WCI  28
OFFUTT AFB     CLOUDY    30  25  80 E5        29.89F WCI  25
MILLARD        CLOUDY    39  27  60 CALM      29.89F
LINCOLN        CLEAR     37  24  59 S6        29.90F WCI  32
NEBRASKA CITY  CLOUDY    39  27  63 SW13      29.92F WCI  31
BEATRICE       CLEAR     44  25  47 S9        29.91F
FALLS CITY     CLOUDY    42  25  50 S14       29.95F

...NORTHERN KANSAS...

CITY           SKY/WX    TMP DP  RH WIND       PRES   REMARKS
GOODLAND       CLOUDY    41  15  35 SW13      29.89F
HILL CITY      CLEAR     40  25  55 SW9       29.90F WCI  34
NORTON         CLEAR     34  21  60 SW8       29.87F WCI  27
PHILLIPSBURG   CLEAR     34  23  64 CALM      29.89F
SMITH CENTER   CLEAR     32  21  64 S6        29.91F WCI  26
HAYS           CLEAR     36  22  56 SW9       29.94F WCI  29
RUSSELL        CLOUDY    40  22  48 S13       29.92F WCI  32
CONCORDIA      CLOUDY    43  23  45 S17       29.92F
SALINA         CLEAR     45  24  43 S12       29.97F
TOPEKA         CLOUDY    47  27  45 S13       30.00F



USA.gov is the U.S. government's official web portal to all federal, state and local government web resources and services.